Wind_Speed
22 23 22 22 23 24 24 25 25 25 25 27 27 28 29 29 30 30 31 31 32 33 34 35 35 35 35 36 36 37 37 37 37 38 39 39 40 39
22 23 22 22 22 23 24 25 25 25 25 26 26 27 28 28 29 30 30 32 33 34 35 35 35 35 36 36 37 37 38 38 38 39 40 41 41 41
21 21 22 22 22 22 23 23 23 23 23 24 25 26 26 27 27 28 29 30 31 31 32 34 36 36 37 37 37 38 39 39 40 40 40 41 41 42
20 20 20 21 21 21 20 20 21 22 22 22 23 24 24 24 25 25 27 28 29 30 31 32 35 36 36 37 37 38 39 40 40 40 39 41 42 42
18 18 18 18 19 20 20 20 21 21 21 22 22 23 23 23 23 24 25 26 28 29 31 32 33 34 36 36 36 37 38 39 39 39 39 40 41 41
17 17 17 18 19 19 20 20 20 20 20 20 21 21 22 22 23 24 25 25 26 27 28 29 30 31 33 34 35 36 37 38 38 39 40 40 41 42
16 17 17 18 18 18 19 18 18 18 18 18 19 20 21 22 22 23 24 24 24 25 26 27 28 29 30 32 33 34 34 36 37 38 40 41 42 42
17 17 18 18 18 18 18 18 18 18 18 18 18 19 20 21 23 23 23 23 22 23 25 26 26 27 28 30 31 33 34 35 36 37 39 40 41 41
17 17 18 19 19 19 19 18 18 17 17 18 18 19 20 21 22 22 22 22 22 23 24 24 25 26 27 28 30 31 32 34 35 36 37 38 40 40
17 17 18 18 18 18 18 18 17 17 17 18 18 18 19 20 21 21 22 22 23 23 24 24 25 26 27 28 29 30 31 32 33 34 35 36 37 37
17 17 18 17 16 16 17 17 17 16 17 18 17 17 19 20 20 21 21 22 22 23 24 24 25 26 26 27 28 29 30 31 32 32 32 33 34 34
17 17 17 16 16 16 16 16 16 16 17 17 17 18 19 20 20 21 22 22 22 23 24 24 24 25 25 25 26 27 28 28 28 29 30 31 32 32
16 15 16 15 15 15 16 16 16 17 17 17 17 18 19 19 20 21 21 22 22 22 23 24 23 23 23 23 24 25 26 27 27 27 27 28 30 31
15 15 15 15 15 15 15 15 16 17 17 18 18 18 18 19 20 21 21 20 21 21 21 22 22 21 21 21 22 23 24 25 26 26 27 27 28 30
14 15 15 14 14 14 15 16 16 17 17 18 18 18 18 19 19 20 19 19 20 20 20 21 21 22 21 20 20 21 21 22 23 25 26 27 28 29
14 14 14 14 14 15 15 15 15 16 17 17 18 18 18 18 18 19 19 19 19 19 20 20 21 21 20 20 21 21 21 21 21 23 24 25 25 26
13 13 13 14 14 14 14 15 15 15 15 16 17 17 17 18 19 19 19 19 19 19 19 20 20 21 21 21 21 21 21 21 21 22 22 23 24 24
12 13 13 12 13 14 15 15 15 16 18 18 17 17 18 18 18 18 18 19 19 20 19 19 19 19 20 20 21 20 20 20 20 20 20 21 21 22
12 12 12 12 13 14 15 15 16 17 18 18 19 18 18 19 19 18 18 19 19 19 19 19 18 18 19 21 20 19 19 19 19 19 18 18 18 18
13 13 13 14 14 15 15 16 16 16 17 17 17 17 17 17 18 18 18 18 18 19 19 19 19 19 19 19 19 19 19 18 18 18 17 17 16 16
13 13 13 14 14 14 15 15 16 16 16 16 16 16 16 16 17 17 17 16 16 18 18 18 18 18 18 18 18 18 17 17 17 16 15 15 15 15
12 13 13 14 15 15 15 16 16 16 15 15 15 16 16 15 16 16 15 15 15 16 16 16 16 17 17 17 17 17 17 16 15 14 14 14 14 14
13 13 14 15 15 16 16 16 15 15 15 16 15 16 15 15 15 15 16 16 15 16 16 16 16 16 16 16 15 15 16 15 14 13 13 13 13 13
Wind_Direction
271 269 269 269 268 268 269 270 269 267 266 265 264 264 265 265 264 263 264 263 261 262 260 259 259 259 259 258 258 257 256 255 255 255 255 255 254 251
275 269 268 269 271 271 271 272 271 269 268 268 267 267 268 267 265 266 266 265 264 263 261 260 259 259 259 260 259 258 256 255 254 255 256 257 256 252
276 272 268 269 271 272 273 273 272 272 272 269 268 269 270 270 269 269 269 267 267 266 264 262 261 261 261 262 261 259 258 257 256 256 257 257 255 253
275 275 272 272 273 273 275 277 276 274 272 270 269 271 272 273 272 272 272 270 269 269 268 266 263 262 263 262 263 262 260 258 257 257 257 256 254 253
277 277 276 274 275 276 278 278 278 276 273 271 270 272 273 275 276 275 274 273 271 271 270 269 267 265 264 263 264 263 261 259 257 256 256 256 255 253
278 277 277 277 278 279 279 278 277 277 277 276 275 275 274 275 278 278 277 278 277 276 275 273 271 269 267 266 266 264 262 259 258 256 255 255 255 254
278 276 277 280 280 280 279 279 279 280 279 279 279 278 277 276 279 282 281 280 279 279 278 277 275 273 270 269 267 266 264 261 258 256 254 254 255 255
276 277 278 280 281 280 279 282 283 283 281 281 281 281 280 280 282 283 284 282 280 280 279 279 279 277 274 272 269 267 265 262 259 258 258 257 257 257
278 278 280 279 277 277 279 282 284 285 285 284 285 283 283 284 285 284 284 283 283 284 283 282 281 280 277 274 272 269 266 265 263 261 261 259 258 256
280 280 281 278 275 275 277 282 282 282 286 287 287 286 285 287 289 287 285 285 286 286 287 284 283 282 281 278 276 274 271 268 266 264 265 263 259 255
281 280 283 282 279 277 278 279 279 283 288 290 290 291 290 291 291 289 288 288 288 289 288 287 285 284 284 283 280 278 276 273 269 266 265 261 258 256
283 281 281 281 280 280 279 278 279 283 286 288 290 293 294 295 295 293 292 292 291 289 288 288 286 285 285 284 285 282 279 275 269 265 263 261 259 258
283 282 283 282 280 279 279 280 283 284 285 288 291 293 295 297 299 299 296 294 292 291 289 288 288 288 289 288 288 285 280 277 270 267 266 263 260 260
284 284 283 283 282 280 280 282 284 287 289 292 294 296 297 299 301 300 298 296 295 295 293 290 289 290 291 293 294 290 284 280 274 268 267 264 263 263
286 287 285 282 281 282 281 282 287 292 294 295 296 297 299 300 302 303 301 296 296 297 296 294 292 292 292 294 296 296 291 284 280 275 272 268 265 264
287 288 286 283 283 283 285 284 285 291 295 298 300 300 302 303 305 304 302 300 299 299 299 297 296 295 293 294 297 296 295 292 287 282 277 272 269 264
292 289 289 288 285 286 287 287 288 291 296 299 300 300 300 301 302 303 303 301 301 302 300 300 298 298 297 296 298 299 297 295 293 290 283 277 273 270
294 292 291 293 294 295 294 292 291 292 294 296 299 300 300 300 300 300 300 299 301 304 302 302 299 298 298 298 299 300 301 298 296 293 290 286 280 274
294 292 291 293 294 297 299 300 300 298 298 298 298 300 302 303 302 300 299 299 301 303 302 300 299 300 300 301 301 301 303 302 297 294 290 288 284 279
296 293 291 292 294 298 301 303 304 304 303 302 301 300 302 306 305 303 302 302 302 304 303 301 300 300 302 307 306 305 303 303 301 297 292 287 285 282
300 296 295 296 295 298 301 303 304 305 304 306 306 304 303 304 306 306 306 305 305 307 306 303 303 304 305 308 308 307 306 305 305 301 295 288 285 283
307 304 303 303 300 299 300 302 304 305 306 307 308 307 305 305 305 307 308 309 311 311 311 309 307 307 309 310 311 311 310 307 305 303 297 292 288 286
307 307 307 308 307 305 303 304 305 307 310 311 308 310 309 308 310 311 311 312 311 312 312 313 313 313 313 314 314 313 313 311 309 304 297 294 294 293
Height
5730 5730 5729 5730 5730 5730 5730 5731 5731 5731 5732 5731 5731 5731 5731 5732 5732 5733 5733 5733 5735 5736 5737 5739 5740 5741 5743 5744 5745 5746 5748 5749 5751 5753 5754 5756 5758 5760
5723 5723 5723 5724 5723 5723 5723 5723 5723 5723 5724 5724 5724 5724 5724 5724 5724 5724 5724 5725 5725 5726 5727 5728 5730 5731 5732 5733 5734 5735 5737 5738 5740 5741 5743 5744 5746 5748
5717 5717 5717 5717 5717 5717 5716 5716 5716 5715 5716 5717 5716 5716 5716 5716 5716 5716 5716 5716 5716 5717 5717 5718 5719 5720 5721 5721 5723 5724 5725 5727 5728 5730 5731 5732 5734 5736
5711 5711 5711 5711 5711 5711 5710 5710 5709 5709 5709 5710 5709 5709 5709 5708 5708 5708 5707 5707 5707 5707 5707 5707 5708 5708 5709 5710 5711 5712 5714 5715 5716 5718 5719 5721 5722 5724
5705 5705 5705 5705 5705 5705 5704 5704 5703 5703 5703 5703 5703 5702 5702 5701 5701 5700 5699 5699 5698 5698 5698 5697 5697 5697 5698 5699 5699 5700 5701 5703 5705 5706 5707 5709 5710 5712
5700 5700 5700 5700 5700 5699 5698 5698 5697 5696 5696 5696 5696 5695 5695 5694 5693 5693 5692 5691 5690 5689 5688 5688 5687 5687 5687 5687 5688 5689 5689 5690 5692 5693 5695 5697 5698 5700
5694 5694 5694 5694 5694 5693 5693 5692 5692 5691 5690 5690 5689 5689 5688 5687 5686 5685 5684 5683 5682 5680 5679 5679 5678 5677 5677 5676 5676 5677 5677 5678 5679 5681 5683 5684 5686 5688
5689 5689 5689 5688 5688 5687 5687 5687 5686 5685 5685 5684 5683 5682 5681 5680 5679 5678 5677 5676 5675 5673 5672 5671 5669 5668 5667 5666 5666 5666 5666 5667 5668 5669 5670 5672 5673 5675
5683 5683 5683 5682 5682 5682 5681 5680 5680 5679 5678 5678 5677 5676 5675 5674 5673 5671 5669 5667 5667 5665 5663 5662 5661 5659 5658 5657 5656 5656 5656 5656 5657 5658 5658 5659 5660 5662
5678 5677 5677 5676 5675 5675 5675 5674 5673 5673 5672 5671 5671 5670 5668 5666 5665 5663 5661 5660 5659 5657 5655 5654 5652 5650 5649 5647 5646 5646 5645 5645 5646 5646 5646 5647 5648 5650
5671 5671 5670 5670 5669 5669 5668 5668 5668 5667 5666 5665 5664 5662 5661 5659 5657 5656 5654 5653 5651 5649 5647 5645 5644 5642 5641 5639 5637 5636 5635 5635 5635 5635 5635 5636 5637 5639
5666 5665 5665 5664 5664 5663 5662 5662 5662 5661 5660 5659 5658 5656 5655 5653 5651 5649 5647 5645 5643 5642 5639 5638 5636 5634 5633 5631 5629 5627 5626 5625 5625 5625 5625 5626 5627 5628
5661 5660 5660 5659 5658 5657 5657 5657 5656 5656 5654 5653 5652 5650 5649 5647 5644 5642 5640 5638 5636 5634 5632 5630 5628 5626 5624 5623 5621 5619 5617 5616 5616 5616 5616 5616 5617 5617
5656 5655 5654 5653 5653 5652 5651 5651 5651 5650 5649 5647 5646 5644 5642 5640 5638 5635 5633 5631 5629 5627 5625 5623 5621 5619 5618 5616 5614 5612 5610 5608 5608 5607 5607 5606 5607 5607
5651 5650 5649 5648 5647 5646 5646 5646 5645 5644 5643 5642 5640 5638 5636 5634 5631 5629 5626 5624 5622 5620 5618 5616 5615 5613 5611 5609 5608 5605 5603 5601 5600 5599 5598 5597 5597 5597
5646 5645 5644 5643 5642 5642 5641 5640 5639 5639 5637 5636 5634 5632 5631 5628 5626 5624 5621 5619 5617 5615 5612 5610 5608 5606 5604 5603 5601 5598 5596 5595 5593 5591 5589 5588 5587 5587
5641 5641 5640 5639 5638 5637 5637 5636 5635 5633 5632 5631 5629 5627 5625 5623 5621 5618 5616 5614 5612 5610 5607 5605 5603 5600 5598 5596 5594 5592 5590 5588 5585 5583 5581 5580 5579 5579
5638 5637 5636 5635 5635 5634 5633 5631 5630 5629 5627 5625 5623 5621 5619 5617 5615 5613 5611 5608 5606 5604 5602 5599 5597 5595 5593 5590 5588 5586 5584 5581 5579 5576 5574 5573 5572 5571
5634 5633 5633 5632 5631 5630 5628 5627 5625 5623 5622 5620 5618 5616 5614 5612 5609 5607 5605 5603 5601 5598 5596 5593 5591 5589 5587 5585 5582 5580 5577 5575 5572 5570 5568 5567 5565 5564
5630 5629 5629 5628 5627 5625 5624 5622 5620 5618 5616 5614 5612 5610 5608 5606 5603 5601 5599 5597 5595 5593 5590 5588 5585 5583 5581 5579 5577 5574 5572 5569 5566 5564 5562 5560 5559 5558
5627 5625 5624 5623 5622 5621 5619 5617 5615 5613 5611 5609 5607 5605 5603 5600 5598 5596 5593 5591 5589 5587 5585 5583 5580 5578 5576 5574 5571 5569 5566 5564 5561 5559 5556 5555 5554 5553
5623 5622 5620 5619 5617 5616 5614 5612 5610 5608 5606 5604 5602 5600 5597 5595 5593 5591 5588 5586 5584 5582 5580 5577 5575 5573 5571 5569 5566 5564 5561 5559 5556 5554 5552 5551 5550 5549
5620 5618 5616 5614 5613 5611 5609 5607 5605 5604 5602 5600 5598 5595 5592 5590 5588 5586 5584 5582 5579 5577 5575 5573 5571 5568 5566 5564 5562 5559 5557 5554 5552 5550 5549 5547 5546 5544